Zurück zum Katalog

DELTA 1 DEB

AktivSSO
NORAD 10717·DEBRIS·🇺🇸 United States

Gestartet Jul 29, 1976 von Vandenberg Space Force Base

Loading…

Nächste Überflüge (nächste 24 Stunden)

TLE

AktuellSource: Space-Track

Epoche: Sep 14, 2026, 09:57 UTC

1 10717U 76077AN  26257.41517444 -.00000034  00000-0  10640-3 0  9997
2 10717 102.6593 243.3776 0099800 144.8373  11.3074 12.23336667238640

Verfolge DELTA 1 DEB in Echtzeit mit AllMySat

Download on the App Store